EW4806 Weather Reports


Display with metric or nautical units.
time (UTC)temp
F
wind
direction
speed
MPH
gust
MPH
rain 1hr
in
rain 24hr
in
rain mn
in
humidity
%
barometer
mb
20260901233317 69 354 2.0 12.0 0.00 0.00 0.00 42 1011.9
20260901232525 70 293 2.0 13.0 0.00 0.00 0.00 42 1011.8
20260901230317 70 285 2.0 11.0 0.00 0.00 0.00 41 1011.7
20260901224817 71 268 2.0 12.0 0.00 0.00 0.00 41 1011.6
20260901223316 70 277 2.0 12.0 0.00 0.00 0.00 41 1011.6
20260901221813 71 288 2.0 9.0 0.00 0.00 0.00 40 1011.8
20260901220313 71 277 2.0 14.0 0.00 0.00 0.00 40 1011.8
20260901214813 71 279 2.0 11.0 0.00 0.00 0.00 40 1011.8
20260901213314 71 285 2.0 15.0 0.00 0.00 0.00 41 1011.7
20260901211813 72 222 3.0 18.0 0.00 0.00 0.00 39 1011.7
20260901210311 72 278 3.0 18.0 0.00 0.00 0.00 39 1011.6
20260901204812 73 241 3.0 15.0 0.00 0.00 0.00 38 1011.5
20260901203312 73 218 1.0 9.0 0.00 0.00 0.00 38 1011.4
20260901201811 72 264 1.0 9.0 0.00 0.00 0.00 40 1011.5
20260901200313 72 300 0.0 2.0 0.00 0.00 0.00 41 1011.6
20260901194811 71 66 0.0 2.0 0.00 0.00 0.00 40 1011.8
20260901194002 71 114 0.0 2.0 0.00 0.00 0.00 41 1012.0
20260901191811 70 279 0.0 1.0 0.00 0.00 0.00 43 1012.2
20260901190308 69 141 0.0 0.0 0.00 0.00 0.00 45 1012.4
20260901184806 67 29 0.0 0.0 0.00 0.00 0.00 47 1012.6
20260901183307 67 68 0.0 2.0 0.00 0.00 0.00 46 1012.9
20260901182508 68 266 0.0 3.0 0.00 0.00 0.00 46 1012.9
20260901181712 66 183 0.0 2.0 0.00 0.00 0.00 48 1013.0
20260901174807 65 249 0.0 3.0 0.00 0.00 0.00 50 1013.0
20260901173307 65 329 0.0 3.0 0.00 0.00 0.00 51 1013.1
20260901171807 64 274 0.0 1.0 0.00 0.00 0.00 53 1013.2
20260901170304 63 216 0.0 2.0 0.00 0.00 0.00 54 1013.3
20260901164803 63 263 0.0 2.0 0.00 0.00 0.00 54 1013.3
20260901163300 62 314 0.0 3.0 0.00 0.00 0.00 59 1013.4
20260901161759 61 284 0.0 0.0 0.00 0.00 0.00 61 1013.5
20260901160943 60 272 0.0 1.0 0.00 0.00 0.00 62 1013.6
20260901154752 60 322 0.0 1.0 0.00 0.00 0.00 65 1013.5
20260901153251 59 272 0.0 0.0 0.00 0.00 0.00 66 1013.5
20260901151749 58 272 0.0 0.0 0.00 0.00 0.00 67 1013.5
20260901150246 57 180 0.0 0.0 0.00 0.00 0.00 70 1013.6
20260901144745 56 179 0.0 0.0 0.00 0.00 0.00 72 1013.4
20260901143246 56 180 0.0 1.0 0.00 0.00 0.00 74 1013.2
20260901141744 55 180 0.0 0.0 0.00 0.00 0.00 76 1013.0
20260901140244 54 180 0.0 0.0 0.00 0.00 0.00 76 1013.0
20260901134744 53 198 0.0 0.0 0.00 0.00 0.00 76 1012.8
20260901133937 54 198 0.0 0.0 0.00 0.00 0.00 76 1012.7
20260901131741 53 198 0.0 0.0 0.00 0.00 0.00 75 1012.7
20260901130237 54 198 0.0 0.0 0.00 0.00 0.00 74 1012.7
20260901125424 54 198 0.0 0.0 0.00 0.00 0.00 74 1012.5
20260901123234 54 198 0.0 0.0 0.00 0.00 0.00 73 1012.5
20260901122422 54 198 0.0 0.0 0.00 0.00 0.00 73 1012.6
20260901120235 54 198 0.0 0.0 0.00 0.00 0.00 72 1012.5
20260901114734 55 198 0.0 0.0 0.00 0.00 0.00 71 1012.6
20260901114639 55 198 0.0 0.0 0.00 0.00 0.00 71 1012.5
20260901112431 55 198 0.0 0.0 0.00 0.00 0.00 69 1012.4
20260901110926 55 198 0.0 0.0 0.00 0.00 0.00 68 1012.3
20260901104734 56 198 0.0 0.0 0.00 0.00 0.00 67 1012.2
20260901103234 56 198 0.0 0.0 0.00 0.00 0.00 67 1012.1
20260901101732 56 198 0.0 0.0 0.00 0.00 0.00 65 1011.9
20260901100230 57 198 0.0 0.0 0.00 0.00 0.00 62 1011.9
20260901094728 58 297 0.0 0.0 0.00 0.00 0.00 64 1011.9
20260901094619 58 301 0.0 0.0 0.00 0.00 0.00 63 1011.8
20260901092415 58 301 0.0 0.0 0.00 0.00 0.00 63 1011.9
20260901090221 58 301 0.0 0.0 0.00 0.00 0.00 60 1011.8
20260901084722 59 300 0.0 0.0 0.00 0.00 0.00 57 1011.7
20260901083925 60 301 0.0 0.0 0.00 0.00 0.00 56 1011.6
20260901081718 61 300 0.0 0.0 0.00 0.00 0.00 54 1011.6
20260901080218 62 301 0.0 0.0 0.00 0.00 0.00 53 1011.7
20260901074717 62 340 0.0 0.0 0.00 0.00 0.00 52 1011.7
20260901073215 63 297 0.0 0.0 0.00 0.00 0.00 50 1011.6
20260901071715 63 301 0.0 0.0 0.00 0.00 0.00 49 1011.6
20260901070921 64 330 0.0 0.0 0.00 0.00 0.00 48 1011.5
20260901064713 64 286 0.0 0.0 0.00 0.00 0.00 45 1011.5
20260901063212 65 284 0.0 0.0 0.00 0.00 0.00 42 1011.5
20260901061712 66 287 0.0 0.0 0.00 0.00 0.00 40 1011.5
20260901060212 67 280 0.0 0.0 0.00 0.00 0.00 38 1011.4
20260901054712 67 301 0.0 2.0 0.00 0.00 0.00 37 1011.3
20260901053214 68 250 0.0 8.0 0.00 0.00 0.00 36 1011.4
20260901052412 69 220 0.0 2.0 0.00 0.00 0.00 34 1011.3
20260901050211 69 262 0.0 4.0 0.00 0.00 0.00 33 1011.3
20260901044710 70 181 0.0 6.0 0.00 0.00 0.00 32 1011.2
20260901043210 70 196 0.0 7.0 0.00 0.00 0.00 31 1011.0
20260901041710 71 256 0.0 4.0 0.00 0.00 0.00 31 1010.8
20260901040210 72 274 0.0 2.0 0.00 0.00 0.00 30 1010.4
20260901034709 73 251 0.0 7.0 0.00 0.00 0.00 28 1009.9
20260901033209 74 243 0.0 7.0 0.00 0.00 0.00 26 1009.7
20260901031710 74 277 0.0 2.0 0.00 0.00 0.00 24 1009.4
20260901030208 76 237 1.0 8.0 0.00 0.00 0.00 22 1009.3
20260901024706 77 250 1.0 8.0 0.00 0.00 0.00 17 1009.1
20260901023205 78 187 1.0 11.0 0.00 0.00 0.00 15 1008.8
20260901021705 79 279 1.0 11.0 0.00 0.00 0.00 12 1008.5
20260901021604 81 274 1.0 11.0 0.00 0.00 0.00 10 1008.2
20260901014706 82 171 1.0 5.0 0.00 0.00 0.00 9 1008.1
20260901013208 83 288 1.0 8.0 0.00 0.00 0.00 8 1007.9
20260901011705 84 185 1.0 8.0 0.00 0.00 0.00 7 1007.7
20260901010206 84 233 2.0 11.0 0.00 0.00 0.00 7 1007.6
20260901004706 85 158 3.0 16.0 0.00 0.00 0.00 9 1007.5
20260901004557 85 262 3.0 16.0 0.00 0.00 0.00 12 1007.4
20260901002355 86 285 3.0 15.0 0.00 0.00 0.00 14 1007.2
20260901000206 87 274 1.0 11.0 0.00 0.00 0.00 15 1007.1
20260831235406 86 222 4.0 15.0 0.00 0.00 0.00 15 1007.1